Powrót do katalogu

FENGYUN 1C DEB

AktywnyPO
NORAD 33691·DEBRIS·🇨🇳 China

Wystrzelony May 10, 1999 z Taiyuan Satellite Launch Center

Loading…

Następne Przeloty (najbliższe 24 godziny)

TLE

ŚwieżeSource: Space-Track

Epoka: Sep 12, 2026, 10:57 UTC

1 33691U 99025DGC 26255.45652429  .00002991  00000-0  12527-2 0  9994
2 33691  99.1501 253.9018 0065975   3.2316 356.9275 14.25651981943863

Śledź FENGYUN 1C DEB w czasie rzeczywistym z AllMySat

Download on the App Store